Погода в Тофино

Канада     49°09′02″N   125°54′20″W
темп.,
°C
ветер,
м/с
пор.,
м/с
влажн.,
%
обл.,
%
осадки,
мм/ч
давл.,
гПа
погр.,
м
11 апреля, вс
вс1123:00+5ссв33695 0.0 1026137
02:00+5ссв22630 0.0 1027123
05:00+4св11580 0.0 1028120
08:00+4в11585 0.0 1029178
11:00+4ююз32715 0.0 1029248
14:00+4юз33744 0.0 1029225
17:00+5зюз23645 0.0 1028216
20:00+7зсз22655 0.0 1027102
12 апреля, пн
пн1223:00+7св336653 0.0 102780
02:00+6ссв33645 0.0 102692
05:00+6ссв33600 0.0 102690
08:00+6св22560 0.0 102699
11:00+7юз32580 0.0 1027130
14:00+6з44700 0.0 1027164
17:00+8з34670 0.0 1026100
20:00+9сз22700 0.0 102622
13 апреля, вт
вт1323:00+8св44690 0.0 102733
02:00+8ссв56625 0.0 102749
05:00+8ссв45615 0.0 102748
08:00+9ссв3363100 0.0 102732
11:00+10зюз2263100 0.0 102769
14:00+8зюз3374100 0.0 1027108
17:00+8з127349 0.0 102672
20:00+9св22727 0.0 102540
14 апреля, ср
ср1423:00+10ссв2269100 0.0 102511
02:00+9всв117281 0.0 102510
05:00+9ссв336619 0.0 102518
08:00+9св226872 0.0 102412
11:00+8ююз226814 0.0 102465
14:00+6зюз12867 0.0 102383
17:00+6ююз128822 0.0 102195
20:00+9св22764 0.0 102025
15 апреля, чт
чт1523:00+10всв12724 0.0 102010
02:00+10в11745 0.0 102010
05:00+10в11745 0.0 102010
08:00+10юв11725 0.0 102012
11:00+7ююз22825 0.0 102056
14:00+5ююв008964 0.0 102064
17:00+7юз01835 0.0 101962
20:00+11ссв12691 0.0 101844